(288453) = 1996 AB10 = 2000 EA72 = 2004 EM67

Discovered at Kitt Peak on 2004-03-15 by Spacewatch.

Orbit

Orbit type: Main Belt

Note: WebGL enabled browser required.

epoch2023-02-25.0
epoch JD2460000.5
perihelion date2019-09-26.72561
perihelion JD2458753.22561
argument of perihelion (°)18.27261
ascending node (°)169.20251
inclination (°)2.47517
eccentricity0.1496521
perihelion distance (AU)2.0893598
Tisserand w.r.t. Jupiter3.5
ΔV w.r.t. Earth (km/sec)9.1
semimajor axis (AU)2.4570647
mean anomaly (°)319.18389
mean daily motion (°/day)0.25590510
aphelion distance (AU)2.825
period (years)3.85
P-vector [x]-0.99144665
P-vector [y]-0.12448288
P-vector [z]-0.03921151
Q-vector [x]0.13026156
Q-vector [y]-0.92519870
Q-vector [z]-0.35642571
absolute magnitude17.63
phase slope0.15
uncertainty0
referenceMPEC 2023-D68
observations used190
oppositions12
arc length (days)9905
first opposition used1996
last opposition used2023
residual rms (arc-secs)0.76
perturbers coarse indicatorM-v
perturbers precise indicator003Ek
first observation date used1996-01-13.0
last observation date used2023-02-25.0
computer nameMPCLINUX
JD of orbit computation2456552.251183
perihelion JD uncertainty (days)1.7218E-04
argument of perihelion uncertainty (°)1.1616E-04
ascending node uncertainty (°)1.1161E-04
inclination uncertainty (°)7.6619E-06
eccentricity uncertainty 3.8687E-07
perihelion distance uncertainty (AU)8.9840E-07
Minimum Orbit Intersection Distances (in AU)
for orbit epoch: 2460000.5, reference: E2023-D68
Mercury1.67297
Venus1.36964
Earth1.09106
Mars0.44046
Jupiter2.12743
Saturn6.45344
Uranus16.319
Neptune27.0373

Observations

196 total observations over interval: 1996 01 13.33630 – 2023 02 25.489116
These data are available for download (format description).

Date (UT) J2000 RA J2000 Dec Magn Location Ref
1996 01 13.33630 08 35 01.89 +15 22 44.7   691 – Steward Observatory, Kitt Peak-Spacewatch MPC 26672
1996 01 13.35776 08 35 00.74 +15 22 49.4 20.5 V 691 – Steward Observatory, Kitt Peak-Spacewatch MPC 26672
1996 01 13.37936 08 34 59.53 +15 22 53.9   691 – Steward Observatory, Kitt Peak-Spacewatch MPC 26672
1996 01 19.35682 08 29 23.61 +15 46 11.6 20.7 V 691 – Steward Observatory, Kitt Peak-Spacewatch MPC 26672
1996 01 19.37893 08 29 22.28 +15 46 17.1   691 – Steward Observatory, Kitt Peak-Spacewatch MPC 26672
2000 03 10.18378 09 35 14.46 +13 10 20.9 20.2 V 691 – Steward Observatory, Kitt Peak-Spacewatch MPS 11457
2000 03 10.20516 09 35 13.65 +13 10 27.0 20.1 V 691 – Steward Observatory, Kitt Peak-Spacewatch MPS 11457
2000 03 10.22695 09 35 12.79 +13 10 33.4 20.7 V 691 – Steward Observatory, Kitt Peak-Spacewatch MPS 11457
2000 03 12.17446 09 34 06.67 +13 19 33.7 19.9 V 691 – Steward Observatory, Kitt Peak-Spacewatch MPS 11457
2000 03 12.19583 09 34 05.94 +13 19 39.7 19.9 V 691 – Steward Observatory, Kitt Peak-Spacewatch MPS 11457
2000 03 12.21724 09 34 05.18 +13 19 45.5 20.0 V 691 – Steward Observatory, Kitt Peak-Spacewatch MPS 11457
2004 02 26.33088 11 48 42.39 +01 05 08.0 20.0   704 – Lincoln Laboratory ETS, New Mexico MPS 103229
2004 02 26.34195 11 48 41.84 +01 05 12.5 20.1   704 – Lincoln Laboratory ETS, New Mexico MPS 103229
2004 02 26.35301 11 48 41.38 +01 05 16.2 20.3   704 – Lincoln Laboratory ETS, New Mexico MPS 103229
2004 02 26.36413 11 48 40.94 +01 05 20.0 19.9   704 – Lincoln Laboratory ETS, New Mexico MPS 103229
2004 03 15.20151 11 34 57.95 +03 06 21.3 20.0 V 691 – Steward Observatory, Kitt Peak-Spacewatch MPS 103229
2004 03 15.23340 11 34 56.28 +03 06 35.0 19.8 V 691 – Steward Observatory, Kitt Peak-Spacewatch MPS 103229
2004 03 15.26016 11 34 54.87 +03 06 46.8 19.9 V 691 – Steward Observatory, Kitt Peak-Spacewatch MPS 103229
2004 03 18.33829 11 32 20.71 +03 28 53.6 19.2   704 – Lincoln Laboratory ETS, New Mexico MPS 103229
2004 03 18.34971 11 32 20.17 +03 28 58.0 20.0   704 – Lincoln Laboratory ETS, New Mexico MPS 103229
2004 03 18.36083 11 32 19.56 +03 29 03.5 19.6   704 – Lincoln Laboratory ETS, New Mexico MPS 103229
2004 03 18.37203 11 32 19.06 +03 29 07.4 19.9   704 – Lincoln Laboratory ETS, New Mexico MPS 103229
2004 03 23.19975 11 28 25.29 +04 02 45.8 19.9 V 691 – Steward Observatory, Kitt Peak-Spacewatch MPS 103229
2004 03 23.23370 11 28 23.60 +04 02 59.7 19.7 V 691 – Steward Observatory, Kitt Peak-Spacewatch MPS 103229
2004 03 23.26427 11 28 22.07 +04 03 12.0 20.0 V 691 – Steward Observatory, Kitt Peak-Spacewatch MPS 103229
2004 03 27.28342 11 25 19.95 +04 29 30.9 19.5   704 – Lincoln Laboratory ETS, New Mexico MPS 103229
2004 03 27.30447 11 25 19.01 +04 29 39.3 20.2   704 – Lincoln Laboratory ETS, New Mexico MPS 103229
2004 03 27.31489 11 25 18.48 +04 29 42.5 20.0   704 – Lincoln Laboratory ETS, New Mexico MPS 103229
2004 03 27.32531 11 25 18.00 +04 29 47.4 20.3   704 – Lincoln Laboratory ETS, New Mexico MPS 103229
2004 03 29.18329 11 23 59.77 +04 41 13.1 20.3 V 291 – LPL/Spacewatch II MPS 103229
2004 03 29.20648 11 23 58.78 +04 41 22.2 19.9 V 291 – LPL/Spacewatch II MPS 103229
2004 03 29.22968 11 23 57.74 +04 41 30.0 20.4 V 291 – LPL/Spacewatch II MPS 103229
2004 03 30.22495 11 23 17.35 +04 47 25.0 20.3 V 691 – Steward Observatory, Kitt Peak-Spacewatch MPS 103229
2004 03 30.25946 11 23 15.87 +04 47 37.2 20.3 V 691 – Steward Observatory, Kitt Peak-Spacewatch MPS 103229
2004 03 30.28730 11 23 14.67 +04 47 47.1 20.3 V 691 – Steward Observatory, Kitt Peak-Spacewatch MPS 103229
2006 11 23.42226 03 21 50.29 +14 48 54.8 21.2 V G96 – Mt. Lemmon Survey MPS 190472
2006 11 23.42660 03 21 50.04 +14 48 53.5 20.9 V G96 – Mt. Lemmon Survey MPS 190472
2006 11 23.43094 03 21 49.71 +14 48 52.1 21.2 V G96 – Mt. Lemmon Survey MPS 190472
2006 11 23.43524 03 21 49.50 +14 48 51.1 21.4 V G96 – Mt. Lemmon Survey MPS 190472
2008 01 31.50343 13 26 53.77 -08 39 40.9 21.9 V G96 – Mt. Lemmon Survey MPS 235332
2008 01 31.50977 13 26 54.02 -08 39 41.9 22.5 V G96 – Mt. Lemmon Survey MPS 235332
2008 01 31.51635 13 26 54.38 -08 39 43.8 21.1 V G96 – Mt. Lemmon Survey MPS 235332
2008 01 31.52271 13 26 54.67 -08 39 45.7 21.9 V G96 – Mt. Lemmon Survey MPS 235332
2008 03 09.44352 13 41 04.86 -08 53 47.7   691 – Steward Observatory, Kitt Peak-Spacewatch MPS 242083
2008 03 09.44599 13 41 04.83 -08 53 47.0   691 – Steward Observatory, Kitt Peak-Spacewatch MPS 242083
2008 03 09.46122 13 41 04.59 -08 53 43.6   691 – Steward Observatory, Kitt Peak-Spacewatch MPS 242083
2008 03 09.46369 13 41 04.55 -08 53 43.9   691 – Steward Observatory, Kitt Peak-Spacewatch MPS 242083
2008 03 09.47893 13 41 04.29 -08 53 40.6   691 – Steward Observatory, Kitt Peak-Spacewatch MPS 242083
2008 03 09.48140 13 41 04.28 -08 53 40.1   691 – Steward Observatory, Kitt Peak-Spacewatch MPS 242083
2008 03 28.32002 13 32 03.33 -07 22 21.8 19.9 V G96 – Mt. Lemmon Survey MPS 244010
2008 03 28.32668 13 32 03.04 -07 22 19.5 19.8 V G96 – Mt. Lemmon Survey MPS 244010
2008 03 28.33330 13 32 02.76 -07 22 17.0 20.1 V G96 – Mt. Lemmon Survey MPS 244010
2008 03 28.34001 13 32 02.43 -07 22 14.3 20.1 V G96 – Mt. Lemmon Survey MPS 244010
2008 04 03.35065 13 27 30.02 -06 44 02.2 19.8 V G96 – Mt. Lemmon Survey MPS 244671
2008 04 03.35662 13 27 29.70 -06 43 59.9 19.9 V G96 – Mt. Lemmon Survey MPS 244671
2008 04 03.36257 13 27 29.41 -06 43 57.5 19.8 V G96 – Mt. Lemmon Survey MPS 244671
2008 04 03.36851 13 27 29.08 -06 43 55.2 19.8 V G96 – Mt. Lemmon Survey MPS 244671
2008 04 07.30489 13 24 17.01 -06 17 57.5 19.2   704 – Lincoln Laboratory ETS, New Mexico MPS 245723
2008 04 07.32798 13 24 15.86 -06 17 46.7 20.1   704 – Lincoln Laboratory ETS, New Mexico MPS 245723
2008 04 07.33943 13 24 15.19 -06 17 43.0 19.6   704 – Lincoln Laboratory ETS, New Mexico MPS 245723
2008 04 07.35087 13 24 14.57 -06 17 37.9 19.6   704 – Lincoln Laboratory ETS, New Mexico MPS 245724
2008 04 12.26608 13 20 08.55 -05 45 12.9 19.7 V G96 – Mt. Lemmon Survey MPS 246728
2008 04 12.27501 13 20 08.08 -05 45 09.6 19.7 V G96 – Mt. Lemmon Survey MPS 246728
2008 04 12.28403 13 20 07.62 -05 45 06.0 19.6 V G96 – Mt. Lemmon Survey MPS 246728
2008 04 12.29302 13 20 07.15 -05 45 02.8 19.5 V G96 – Mt. Lemmon Survey MPS 246728
2008 04 13.24937 13 19 19.30 -05 38 51.5 19.6   704 – Lincoln Laboratory ETS, New Mexico MPS 246728
2008 04 13.26039 13 19 18.82 -05 38 45.2 19.2   704 – Lincoln Laboratory ETS, New Mexico MPS 246728
2008 04 13.27140 13 19 18.24 -05 38 41.2 19.7   704 – Lincoln Laboratory ETS, New Mexico MPS 246728
2008 04 13.28241 13 19 17.66 -05 38 37.5 19.7   704 – Lincoln Laboratory ETS, New Mexico MPS 246728
2008 04 24.13665 13 10 45.76 -04 33 36.7 20.1 V 691 – Steward Observatory, Kitt Peak-Spacewatch MPS 247747
2008 04 24.15772 13 10 44.80 -04 33 30.0 20.0 V 691 – Steward Observatory, Kitt Peak-Spacewatch MPS 247747
2008 04 24.17877 13 10 43.84 -04 33 23.2 20.2 V 691 – Steward Observatory, Kitt Peak-Spacewatch MPS 247747
2008 04 27.15209 13 08 40.85 -04 18 09.3 20.0 V 691 – Steward Observatory, Kitt Peak-Spacewatch MPS 248111
2008 04 27.17312 13 08 39.97 -04 18 03.2 20.2 V 691 – Steward Observatory, Kitt Peak-Spacewatch MPS 248111
2008 04 27.19415 13 08 39.11 -04 17 57.3 20.0 V 691 – Steward Observatory, Kitt Peak-Spacewatch MPS 248111
2008 05 03.15587 13 05 06.06 -03 51 58.3 20.2 V 691 – Steward Observatory, Kitt Peak-Spacewatch MPS 248948
2008 05 03.17179 13 05 05.54 -03 51 54.6 20.3 V 691 – Steward Observatory, Kitt Peak-Spacewatch MPS 248948
2008 05 03.18771 13 05 05.00 -03 51 51.0 20.2 V 691 – Steward Observatory, Kitt Peak-Spacewatch MPS 248948
2008 05 05.14731 13 04 06.25 -03 44 47.0 20.4 V 691 – Steward Observatory, Kitt Peak-Spacewatch MPS 248948
2008 05 05.16354 13 04 05.72 -03 44 43.7 20.4 V 691 – Steward Observatory, Kitt Peak-Spacewatch MPS 248948
2008 05 05.17978 13 04 05.28 -03 44 40.2 20.2 V 691 – Steward Observatory, Kitt Peak-Spacewatch MPS 248948
2008 05 11.15828 13 01 44.51 -03 28 02.4   691 – Steward Observatory, Kitt Peak-Spacewatch MPS 249801
2008 05 11.17674 13 01 44.19 -03 28 00.1   691 – Steward Observatory, Kitt Peak-Spacewatch MPS 249801
